AirNav   Everest Fuels
 
 278 users online  

PS30 MBB Heliport
West Chester, Pennsylvania, USA

GOING TO WEST CHESTER?


FAA INFORMATION EFFECTIVE 18 JUNE 2020

Location

FAA Identifier: PS30
Lat/Long: 39-59-15.3900N 075-34-48.7530W
39-59.256500N 075-34.812550W
39.9876083,-75.5802092
(estimated)
Elevation: 464 ft. / 141 m (estimated)
Variation: 11W (1985)
From city: 2 miles NE of WEST CHESTER, PA
Time zone: UTC -4 (UTC -5 during Standard Time)
Zip code: 19380

Heliport Operations

Heliport use: Private use. Permission required prior to landing
Activation date: 11/1983
Control tower: no
ARTCC: NEW YORK CENTER
FSS: WILLIAMSPORT FLIGHT SERVICE STATION
Attendance: MON-FRI 0900-1700
Wind indicator: yes
Segmented circle: no

Heliport Communications

WX AWOS-3T at OQN (0.2 nm NW): 121.4 ((610) 692-6190)
WX AWOS-3 at MQS (13 nm W): 126.25 (610-384-6132)
WX ASOS at PTW (15 nm N): 119.425 (610-495-0823)
WX AWOS-3 at LOM (17 nm NE): 118.925 (215-646-1068)
WX ASOS at PHL (17 nm SE): PHONE 215-492-9617
WX ASOS at ILG (19 nm S): PHONE 302-328-1536

Nearby radio navigation aids

VOR radial/distance  VOR name  Freq  Var
MXEr054/5.9MODENA VORTAC113.2009W
PTWr193/14.1POTTSTOWN VORTAC116.5009W
DQOr014/18.6DUPONT VORTAC114.0010W
OODr339/24.7WOODSTOWN VORTAC112.8010W
LRPr113/33.6LANCASTER VOR/DME117.3009W
ARDr253/34.7YARDLEY VOR/DME108.2010W
ETXr181/35.9EAST TEXAS VOR/DME110.2009W
VCNr324/39.1CEDAR LAKE VOR/DME115.2010W

 
NDB name  Hdg/Dist  Freq  Var  ID
AMBLER251/15.927512WING .. -. --.
RAINBOW340/39.936311WRNB .-. -. -...

Heliport Services

Fuel available: A

Runway Information

Helipad H1

Dimensions: 65 x 65 ft. / 20 x 20 m
CIRCULAR LANDING AREA.
Surface: concrete, in fair condition
Latitude: 39-59.256500N
Longitude: 075-34.812550W
Elevation: 464.0 ft.
Traffic pattern: leftleft
Markings: none, in fair condition

Heliport Ownership and Management from official FAA records

Ownership: Privately-owned
Owner: MBB HELICOPTER CORP
900 AIRPORT ROAD
WEST CHESTER, PA 19380
Phone 215-431-4150
Manager: DONALD H. LAMBERT
900 AIRPORT ROAD
WEST CHESTER, PA 19380
Phone 215-431-4150

Heliport Operational Statistics

Aircraft based on the field: 15
Helicopters: 15
    

Additional Remarks

HELI LCTD NXT TO BRANDYWINE ARPT.
FOR CD CTC PHILADELPHIA APCH AT 800-354-9884.

Instrument Procedures

There are no published instrument procedures at PS30.

Some nearby airports with instrument procedures:

KOQN - Brandywine Regional Airport (0 nm NW)
N57 - New Garden Airport (13 nm SW)
KMQS - Chester County G O Carlson Airport (13 nm W)
N10 - Perkiomen Valley Airport (15 nm NE)
KPTW - Heritage Field Airport (15 nm N)
N47 - Pottstown Municipal Airport (17 nm N)
KLOM - Wings Field Airport (17 nm NE)
KPHL - Philadelphia International Airport (17 nm SE)
7N7 - Spitfire Aerodrome (17 nm SE)
KILG - New Castle Airport (19 nm S)
 
Loc | Ops | Rwys | IFR | FBO | Links
Com | Nav | Svcs | Stats | Notes
Area around PS30 (MBB Heliport)
 
Road maps at: MapQuest Bing Google
 
Aerial photo
No photo
 
Sectional chart

 
Airport distance calculator
Flying to MBB Heliport? Find the distance to fly.

From to PS30

Sunrise and sunset
Times for 15-Jul-2020
 Local
(UTC-4)
 Zulu
(UTC)
Morning civil twilight05:1609:16
Sunrise05:4809:48
Sunset20:2900:29
Evening civil twilight21:0101:01

Current date and time
Zulu (UTC)  15-Jul-2020 08:48:41
Local (UTC-4)  15-Jul-2020 04:48:41
 
METAR
KOQN 150835Z AUTO 00000KT 10SM CLR 19/16 A3012 RMK AO2
KMQS 
13nm W 
150835Z AUTO 00000KT 10SM CLR 19/16 A3014 RMK AO2
KPTW 
15nm N 
150754Z AUTO 00000KT 9SM CLR 17/17 A3012 RMK AO2 SLP194 T01720167
KLOM 
17nm NE 
150835Z AUTO 00000KT 10SM CLR 18/17 A3012 RMK AO2 T01750174
KPHL 
18nm SE 
150754Z 33004KT 10SM FEW250 23/16 A3008 RMK AO2 SLP187 T02330161
KILG 
19nm S 
150751Z 34005KT 10SM CLR 19/16 A3009 RMK AO2 SLP188 T01940161 $
TAF
KPHL 
18nm SE 
150520Z 1506/1612 34005KT P6SM FEW100 FM151000 03005KT P6SM SKC FM151400 07005KT P6SM FEW050 FM151700 12008KT P6SM SCT050 FM160700 11004KT P6SM BKN025
KILG 
19nm S 
150520Z 1506/1606 VRB04KT P6SM FEW100 FM151200 05005KT P6SM SKC FM151500 09005KT P6SM FEW050 FM151800 13007KT P6SM SCT050
NOTAMs
Click for the latest NOTAMs
NOTAMs are issued by the DoD/FAA and will open in a separate window not controlled by AirNav.

 

 
 

Would you like to see your business listed on this page?

 If your business provides an interesting product or service to pilots, flight crews, aircraft, or users of the MBB Heliport, you should consider listing it here.  To start the listing process, click on the button below
 
Add a business
 

Other Pages about MBB Heliport

Update a link
 
Copyright © AirNav, LLC. All rights reserved. Privacy Policy  Contact